Location: Unspecified
(0.0000°N, 0.0000°E)
Time: 23:45:04
(UTC+01:00)

ATLAS 2AS CENTAUR R/B - Visible Passes

Search period start: 20 November 2017 00:00
Search period end: 30 November 2017 00:00
Orbit: 909 x 1303 km, 63.7° (Epoch: 19 November)

Date Brightness Start Highest point End Pass type
(mag) Time Alt. Az. Time Alt. Az. Time Alt. Az.
20 Nov 4.8 21:28:11 10° S 21:29:06 14° SSE 21:29:06 14° SSE visible
21 Nov 4.7 20:45:21 10° SSE 20:46:11 12° SE 20:46:11 12° SE visible
21 Nov 5.3 22:33:15 10° SW 22:33:40 12° SW 22:33:40 12° SW visible
22 Nov 4.4 21:48:19 10° SSW 21:50:48 25° SSW 21:50:48 25° SSW visible
23 Nov 3.7 21:04:01 10° S 21:08:03 34° SSE 21:08:03 34° SSE visible
24 Nov 3.9 20:20:27 10° SSE 20:25:20 25° ESE 20:25:20 25° ESE visible
24 Nov 4.6 22:10:05 10° SW 22:12:49 23° WSW 22:12:49 23° WSW visible
25 Nov 4.5 19:38:42 10° SE 19:41:10 12° ESE 19:42:42 11° E visible
25 Nov 3.3 21:24:46 10° SSW 21:30:11 56° WSW 21:30:11 56° WSW visible
26 Nov 2.7 20:40:05 10° SSW 20:46:54 67° ESE 20:47:38 63° E visible
26 Nov 5.3 22:34:37 10° W 22:35:08 11° W 22:35:08 11° W visible
27 Nov 3.4 19:56:03 10° S 20:02:15 36° ESE 20:05:09 27° ENE visible
27 Nov 4.4 21:47:15 10° WSW 21:52:39 26° WNW 21:52:39 26° WNW visible
28 Nov 4.1 19:12:57 10° SSE 19:17:34 19° ESE 19:22:25 10° ENE visible
28 Nov 3.5 21:01:26 10° SW 21:08:05 48° WNW 21:10:13 38° NNW visible
29 Nov 2.8 20:16:24 10° SSW 20:23:18 87° WNW 20:27:51 27° NNE visible
